Newark Heath, OH

9:07 AM EDT on September 24, 2017 (GMT -0400)
Newark Heath

Weather History for KVTA - November, 2011

Change the Weather History Date:

Saturday, November 12, 2011

  Actual Average Record
Temperature  
Mean Temperature 48 °F -  
Max Temperature 61 °F 49 °F 76 °F (1949)
Min Temperature 35 °F 33 °F 14 °F (1957)
Degree Days  
Heating Degree Days 17    
Moisture  
Dew Point 30 °F    
Average Humidity 49    
Maximum Humidity 67    
Minimum Humidity 32    
Precipitation  
Precipitation 0.00 in - - ()
Sea Level Pressure  
Sea Level Pressure 29.99 in    
Wind  
Wind Speed 8 mph (SSW)    
Max Wind Speed 18 mph    
Max Gust Speed 26 mph    
Visibility 10 miles    
Events      
Averages and records for this station are not official NWS values.
T = Trace of Precipitation, MM = Missing Value Source: NWS Daily Summary

Daily Weather History Graph

Daily Weather History Graph

Search for Another Location

Airport or City:

Trip Planner

Search our weather history database for the weather conditions in past years. The results will help you decide how hot, cold, wet, or windy it might be!

Date:

Astronomy

Nov. 12, 2011 Rise Set
Actual Time 7:11 AM EST 5:16 PM EST
Civil Twilight 6:42 AM EST 5:44 PM EST
Nautical Twilight 6:09 AM EST 6:17 PM EST
Astronomical Twilight 5:37 AM EST 6:49 PM EST
Moon 6:31 PM EST (11/12) 8:52 AM EST (11/12)
Length of Visible Light 11h 02m
Length of Day
10h 04m
Full, 97% of the Moon is Illuminated
Nov 12
Full
Nov 18
Last Quarter
Nov 25
New
Dec 2
First Quarter
Dec 10
Full

Hourly Weather History & Observations

Time (EST) Temp. Windchill Dew Point Humidity Pressure Visibility Wind Dir Wind Speed Gust Speed Precip Events Conditions
12:54 AM 36.0 °F 32.1 °F 24.1 °F 62% 29.96 in 10.0 mi SSE 4.6 mph - N/A   Clear
1:54 AM 35.1 °F 30.1 °F 23.0 °F 61% 29.95 in 10.0 mi South 5.8 mph - N/A   Clear
2:54 AM 37.0 °F 34.5 °F 24.1 °F 59% 29.95 in 10.0 mi South 3.5 mph - N/A   Clear
3:54 AM 35.1 °F - 24.1 °F 64% 29.95 in 10.0 mi Calm Calm - N/A   Clear
5:54 AM 41.0 °F 35.8 °F 28.9 °F 62% 29.96 in 10.0 mi SW 8.1 mph - N/A   Clear
7:54 AM 45.0 °F 39.3 °F 30.0 °F 56% 30.00 in 10.0 mi SW 11.5 mph - N/A   Clear
8:54 AM 48.0 °F - 30.9 °F 52% 30.01 in 10.0 mi SW 17.3 mph 23.0 mph N/A   Clear
10:54 AM 54.0 °F - 32.0 °F 43% 30.04 in 10.0 mi SW 18.4 mph 25.3 mph N/A   Clear
11:54 AM 55.9 °F - 33.1 °F 42% 30.04 in 10.0 mi SSW 16.1 mph - N/A   Clear
12:54 PM 57.9 °F - 33.1 °F 39% 30.01 in 10.0 mi SSW 16.1 mph 23.0 mph N/A   Clear
1:54 PM 60.1 °F - 32.0 °F 35% 30.00 in 10.0 mi SSW 16.1 mph 23.0 mph N/A   Clear
2:54 PM 61.0 °F - 30.9 °F 32% 30.00 in 10.0 mi SW 13.8 mph 26.5 mph N/A   Clear
3:54 PM 60.1 °F - 30.0 °F 32% 30.00 in 10.0 mi SSW 13.8 mph 25.3 mph N/A   Clear
4:54 PM 57.9 °F - 30.0 °F 35% 30.00 in 10.0 mi SSW 12.7 mph 20.7 mph N/A   Clear
5:54 PM 54.0 °F - 30.9 °F 41% 30.00 in 10.0 mi SSW 6.9 mph - N/A   Clear
6:54 PM 55.0 °F - 30.9 °F 40% 30.00 in 10.0 mi SSW 10.4 mph - N/A   Clear
7:54 PM 53.1 °F - 30.9 °F 43% 29.99 in 10.0 mi South 4.6 mph - N/A   Clear
9:54 PM 46.0 °F - 30.9 °F 56% 29.99 in 10.0 mi Calm Calm - N/A   Clear
10:54 PM 42.1 °F - 32.0 °F 67% 29.97 in 10.0 mi Calm Calm - N/A   Clear
11:54 PM 48.0 °F - 32.0 °F 54% 29.96 in 10.0 mi South 5.8 mph - N/A   Clear